Home > Weather > The Valley > Past weeks

Flag for Anguilla Past Weather in The Valley, Anguilla — Yesterday and Last 2 Weeks

Now
84 °F

Passing clouds.


Feels Like: 94 °F
Forecast: 83 / 88 °F
Wind: 9 mph from East

Location: Juliana Airport - Saint Maarten

Current Time: Aug 30, 2016 at 3:25:21 AM

Latest Report: Aug 30, 2016 at 2:00 AM


Visibility: N/A

Pressure: 30.01 "Hg

Humidity: 79%

Dew Point: 77 °F

Location of The ValleyLocation

Past Weather in The Valley — Graph

°F

The Valley Temperature Yesterday

Maximum temperature yesterday: 88 °F (at 11:00 AM)
Minimum temperature yesterday: 82 °F (at 12:00 AM)
Average temperature yesterday: 85 °F

High & Low Weather Summary for the Past Weeks

 TemperatureHumidityPressure
High90 °F (Aug 17, 12:00 PM)100% (Aug 24, 1:00 AM)30.07 "Hg (Aug 24, 1:00 AM)
Low75 °F (Aug 24, 12:00 PM)55% (Aug 22, 4:00 PM)29.83 "Hg (Aug 24, 3:00 AM)
Average85 °F76%29.98 "Hg
* Reported Aug 15 2:00 AM — Aug 30 2:00 AM, The Valley, Weather by CustomWeather, © 2016

Note: Actual official high and low records may vary slightly from our data, if they occured in-between our weather recording intervals... More about our weather records

Advertising

The Valley Weather History for the Previous 24 Hours

Scroll right to see more
 ConditionsComfort  
Time TempWeatherWind HumidityBarometerVisibility
2:00 AM
Tue, Aug 30
84 °FPassing clouds.9 mph79%30.01 "HgN/A
1:00 AM84 °FPassing clouds.9 mph84%30.01 "HgN/A
12:00 AM84 °FPassing clouds.9 mph84%30.04 "HgN/A
11:00 PM
Mon, Aug 29
84 °FPassing clouds.9 mph79%30.04 "HgN/A
10:00 PM84 °FPassing clouds.9 mph84%30.04 "HgN/A
9:00 PM84 °FPassing clouds.10 mph84%30.04 "HgN/A
8:00 PM84 °FPassing clouds.8 mph84%30.01 "HgN/A
7:00 PM84 °FPassing clouds.7 mph84%29.98 "HgN/A
6:00 PM86 °FPassing clouds.8 mph79%29.98 "HgN/A
5:00 PM86 °FPassing clouds.10 mph79%29.98 "HgN/A
4:00 PM86 °FPassing clouds.13 mph79%29.98 "HgN/A
3:00 PM88 °FPassing clouds.10 mph75%29.98 "HgN/A
2:00 PM88 °FPassing clouds.14 mph70%30.01 "HgN/A
1:00 PM88 °FScattered clouds.15 mph70%30.01 "HgN/A
12:00 PM88 °FPassing clouds.15 mph75%30.04 "HgN/A
11:00 AM88 °FPassing clouds.14 mph70%30.04 "HgN/A
10:00 AM86 °FScattered clouds.15 mph79%30.04 "HgN/A
9:00 AM86 °FPartly sunny.14 mph79%30.04 "HgN/A
8:00 AM86 °FScattered clouds.9 mph79%30.01 "HgN/A
7:00 AM84 °FScattered clouds.10 mph84%29.98 "HgN/A
6:00 AM82 °FScattered clouds.9 mph89%29.98 "HgN/A
5:00 AM82 °FPassing clouds.8 mph89%29.98 "HgN/A
Weather by CustomWeather, © 2016

See weather overviewHow to use our weather pages